TimeCDT,TemperatureF,Dew PointF,Humidity,Sea Level PressureIn,VisibilityMPH,Wind Direction,Wind SpeedMPH,Gust SpeedMPH,PrecipitationIn,Events,Conditions,WindDirDegrees,DateUTC
12:15 AM,50.5,39.6,66,30.22,10.0,NNE,11.5,18.4,N/A,,Scattered Clouds,30,2013-05-02 05:15:00
12:35 AM,49.8,39.2,67,30.22,10.0,NNE,12.7,19.6,N/A,,Clear,30,2013-05-02 05:35:00
12:55 AM,49.1,38.5,67,30.22,10.0,NE,15.0,19.6,N/A,,Clear,40,2013-05-02 05:55:00
1:15 AM,48.4,37.6,66,30.22,10.0,NE,12.7,19.6,N/A,,Clear,40,2013-05-02 06:15:00
1:35 AM,47.7,37.6,68,30.21,10.0,ENE,9.2,-,N/A,,Clear,60,2013-05-02 06:35:00
1:55 AM,47.3,37.8,69,30.22,10.0,NE,9.2,16.1,N/A,,Scattered Clouds,40,2013-05-02 06:55:00
2:15 AM,46.9,37.9,71,30.22,10.0,NE,10.4,-,N/A,,Clear,40,2013-05-02 07:15:00
2:35 AM,46.9,38.1,71,30.22,10.0,NNE,11.5,-,N/A,,Clear,30,2013-05-02 07:35:00
2:55 AM,46.9,37.0,68,30.23,10.0,NNE,8.1,-,N/A,,Scattered Clouds,30,2013-05-02 07:55:00
3:15 AM,45.9,36.9,71,30.22,10.0,NNE,9.2,-,N/A,,Scattered Clouds,30,2013-05-02 08:15:00
3:35 AM,45.1,36.0,70,30.23,10.0,North,9.2,18.4,N/A,,Clear,360,2013-05-02 08:35:00
3:55 AM,44.4,35.6,71,30.23,10.0,North,11.5,-,N/A,,Clear,10,2013-05-02 08:55:00
4:15 AM,43.7,34.7,71,30.22,10.0,NNE,11.5,19.6,N/A,,Clear,30,2013-05-02 09:15:00
4:35 AM,43.5,34.0,69,30.23,10.0,NNE,12.7,17.3,N/A,,Clear,30,2013-05-02 09:35:00
4:55 AM,43.2,34.2,71,30.23,10.0,NE,11.5,17.3,N/A,,Clear,40,2013-05-02 09:55:00
5:15 AM,43.0,34.5,72,30.24,10.0,NNE,10.4,16.1,N/A,,Clear,20,2013-05-02 10:15:00
5:35 AM,42.8,34.7,73,30.24,10.0,North,12.7,19.6,N/A,,Clear,10,2013-05-02 10:35:00
5:55 AM,42.4,34.9,75,30.23,10.0,NNE,6.9,-,N/A,,Clear,30,2013-05-02 10:55:00
6:15 AM,42.4,35.2,76,30.24,10.0,NNE,9.2,16.1,N/A,,Clear,20,2013-05-02 11:15:00
6:35 AM,42.8,34.9,74,30.25,10.0,NNE,11.5,16.1,N/A,,Clear,30,2013-05-02 11:35:00
6:55 AM,43.0,34.2,71,30.25,10.0,NNE,15.0,18.4,N/A,,Scattered Clouds,30,2013-05-02 11:55:00
7:15 AM,42.8,33.4,70,30.26,10.0,NNE,13.8,20.7,N/A,,Scattered Clouds,30,2013-05-02 12:15:00
7:35 AM,43.2,33.8,70,30.26,10.0,NNE,15.0,23.0,N/A,,Scattered Clouds,30,2013-05-02 12:35:00
7:55 AM,44.6,34.7,68,30.26,10.0,NNE,13.8,19.6,N/A,,Clear,30,2013-05-02 12:55:00
8:15 AM,44.8,35.1,69,30.26,10.0,North,13.8,-,N/A,,Clear,10,2013-05-02 13:15:00
8:35 AM,45.3,35.6,69,30.26,10.0,NNE,13.8,17.3,N/A,,Clear,30,2013-05-02 13:35:00
8:55 AM,46.4,36.0,67,30.27,10.0,North,12.7,17.3,N/A,,Clear,10,2013-05-02 13:55:00
9:15 AM,47.5,36.3,65,30.27,10.0,North,10.4,16.1,N/A,,Clear,10,2013-05-02 14:15:00
9:35 AM,48.6,36.9,64,30.27,10.0,NNW,9.2,16.1,N/A,,Scattered Clouds,340,2013-05-02 14:35:00
9:55 AM,49.3,37.6,64,30.28,10.0,NNW,10.4,16.1,N/A,,Mostly Cloudy,340,2013-05-02 14:55:00
10:15 AM,50.5,38.3,63,30.26,10.0,North,13.8,-,N/A,,Scattered Clouds,350,2013-05-02 15:15:00
10:35 AM,51.3,38.7,62,30.26,10.0,North,10.4,20.7,N/A,,Clear,360,2013-05-02 15:35:00
10:55 AM,52.0,38.8,61,30.26,10.0,North,12.7,19.6,N/A,,Clear,10,2013-05-02 15:55:00
11:15 AM,52.0,39.2,62,30.26,10.0,NNE,12.7,18.4,N/A,,Mostly Cloudy,30,2013-05-02 16:15:00
11:35 AM,53.1,40.3,62,30.25,10.0,NNW,16.1,19.6,N/A,,Overcast,340,2013-05-02 16:35:00
11:55 AM,53.6,40.5,61,30.24,10.0,North,11.5,17.3,N/A,,Overcast,350,2013-05-02 16:55:00
12:15 PM,54.3,41.0,61,30.23,10.0,NNW,11.5,-,N/A,Thunderstorm,Mostly Cloudy,340,2013-05-02 17:15:00
12:35 PM,54.0,41.0,62,30.23,10.0,North,13.8,18.4,N/A,,Mostly Cloudy,10,2013-05-02 17:35:00
12:55 PM,49.8,41.7,74,30.26,2.5,NW,8.1,-,0.20,Rain-Thunderstorm,Heavy Thunderstorms and Rain,320,2013-05-02 17:55:00
1:15 PM,47.3,43.9,88,30.21,5.0,North,11.5,17.3,0.08,Rain-Thunderstorm,Rain,10,2013-05-02 18:15:00
1:35 PM,47.5,44.2,89,30.24,10.0,NNE,5.8,16.1,0.11,Rain-Thunderstorm,Light Thunderstorms and Rain,20,2013-05-02 18:35:00
1:55 PM,48.2,44.8,88,30.21,10.0,North,12.7,-,0.11,Thunderstorm,Thunderstorm,350,2013-05-02 18:55:00
2:15 PM,48.4,45.1,89,30.21,10.0,North,9.2,-,N/A,,Mostly Cloudy,10,2013-05-02 19:15:00
2:35 PM,50.7,46.9,87,30.20,10.0,North,11.5,16.1,N/A,,Mostly Cloudy,350,2013-05-02 19:35:00
6:15 PM,44.2,41.9,91,30.19,2.0,North,11.5,25.3,0.21,Rain,Heavy Rain,350,2013-05-02 23:15:00
6:35 PM,44.1,42.1,93,30.21,10.0,North,15.0,21.9,0.22,Rain-Thunderstorm,Light Thunderstorms and Rain,10,2013-05-02 23:35:00
7:35 PM,42.1,40.6,95,30.23,7.0,North,10.4,-,0.25,Rain,Rain,360,2013-05-03 00:35:00
7:55 PM,41.2,39.6,94,30.23,10.0,NNE,12.7,20.7,0.28,Rain,Light Rain,20,2013-05-03 00:55:00
8:15 PM,40.1,38.1,93,30.20,10.0,North,19.6,26.5,N/A,Rain,Light Rain,360,2013-05-03 01:15:00
8:35 PM,39.7,37.6,92,30.21,10.0,North,15.0,21.9,N/A,,Overcast,10,2013-05-03 01:35:00
8:55 PM,39.7,37.6,92,30.25,10.0,NNE,8.1,-,N/A,,Overcast,20,2013-05-03 01:55:00
9:15 PM,39.6,37.4,92,30.24,10.0,North,12.7,17.3,N/A,Rain,Light Rain,360,2013-05-03 02:15:00
9:35 PM,39.2,37.2,93,30.23,7.0,North,10.4,19.6,0.04,Rain,Rain,360,2013-05-03 02:35:00
9:55 PM,38.8,36.9,93,30.22,10.0,North,15.0,21.9,0.05,Rain-Thunderstorm,Light Thunderstorms and Rain,360,2013-05-03 02:55:00
10:15 PM,38.8,37.0,93,30.21,10.0,North,9.2,17.3,0.02,Rain,Light Rain,10,2013-05-03 03:15:00
10:35 PM,38.8,36.9,93,30.23,10.0,NNE,9.2,-,0.02,,Overcast,20,2013-05-03 03:35:00
10:55 PM,39.2,37.4,93,30.24,10.0,North,5.8,-,0.02,Rain,Light Rain,350,2013-05-03 03:55:00
11:15 PM,38.5,36.7,93,30.22,10.0,North,12.7,16.1,N/A,Rain,Light Rain,360,2013-05-03 04:15:00
11:35 PM,38.1,36.5,94,30.21,5.0,North,13.8,-,0.02,Rain,Rain,360,2013-05-03 04:35:00
11:55 PM,37.6,36.5,96,30.21,10.0,North,10.4,16.1,0.06,Rain,Light Rain,360,2013-05-03 04:55:00